MDT,Max TemperatureF,Mean TemperatureF,Min TemperatureF,Max Dew PointF,MeanDew PointF,Min DewpointF,Max Humidity, Mean Humidity, Min Humidity, Max Sea Level PressureIn, Mean Sea Level PressureIn, Min Sea Level PressureIn, Max VisibilityMiles, Mean VisibilityMiles, Min VisibilityMiles, Max Wind SpeedMPH, Mean Wind SpeedMPH, Max Gust SpeedMPH,PrecipitationIn, CloudCover, Events, WindDirDegrees
2013-10-1,65,49,33,38,34,30,89,60,31,30.05,29.97,29.88,10,10,7,22,6,28,0.00,2,,217
2013-10-2,53,47,40,35,32,28,79,60,41,30.07,29.95,29.81,10,10,10,13,4,17,0.05,1,,197
2013-10-3,42,39,36,40,34,25,100,80,59,30.15,29.93,29.82,10,10,3,18,9,25,0.18,8,Rain-Thunderstorm,209
2013-10-4,49,40,30,26,24,21,78,56,34,30.47,30.35,30.17,10,10,9,21,9,29,0.00,3,,31
2013-10-5,52,37,22,30,25,19,92,64,35,30.57,30.51,30.46,10,10,10,12,3,15,0.00,0,,136
2013-10-6,61,44,27,32,27,22,92,57,22,30.49,30.39,30.24,10,10,10,10,2,13,0.00,0,,18
2013-10-7,69,50,30,33,27,22,92,56,19,30.22,30.02,29.79,10,10,10,21,7,29,0.00,0,,161
2013-10-8,54,43,31,32,27,23,72,52,32,29.94,29.83,29.73,10,10,10,28,13,37,0.00,1,,196
2013-10-9,65,46,26,37,29,22,85,56,26,29.93,29.86,29.77,10,10,9,18,7,26,0.01,3,,38
2013-10-10,56,47,37,41,36,30,92,71,50,29.82,29.73,29.65,10,10,10,18,8,24,T,5,Rain,210
2013-10-11,52,42,32,31,27,24,65,50,35,30.08,30.00,29.82,10,10,10,15,8,22,0.00,4,,200
2013-10-12,55,42,28,34,29,24,85,60,35,30.10,30.05,29.98,10,10,10,14,5,17,0.00,4,,62
2013-10-13,48,44,39,41,38,33,93,82,70,30.08,30.00,29.96,10,9,4,14,5,18,0.31,8,Rain,15
2013-10-14,50,42,34,33,29,24,76,59,42,30.32,30.20,30.08,10,10,10,15,6,21,T,7,Rain,13
2013-10-15,49,38,27,26,23,20,85,58,31,30.39,30.32,30.25,10,10,10,12,2,16,0.00,0,,71
2013-10-16,50,37,23,30,25,19,88,64,39,30.30,30.22,30.13,10,10,10,17,6,24,0.00,2,,193
2013-10-17,52,40,28,29,25,21,85,59,32,30.25,30.17,30.12,10,10,10,13,4,21,0.00,5,,353
2013-10-18,50,38,26,27,22,19,84,58,31,30.35,30.29,30.24,10,10,10,7,1,9,0.00,1,,54
2013-10-19,53,39,24,31,26,21,88,63,38,30.28,30.20,30.07,10,10,10,0,0,,0.00,0,,-1
2013-10-20,58,45,31,31,27,23,85,55,25,30.16,30.09,30.04,10,10,10,0,0,,0.00,2,,-1
2013-10-21,58,42,25,31,26,22,84,59,33,30.31,30.25,30.16,10,10,10,12,3,15,0.00,0,,195
2013-10-22,61,45,28,33,29,24,85,59,32,30.35,30.26,30.18,10,10,10,10,2,16,0.00,0,,43
2013-10-23,64,46,28,32,28,24,85,54,23,30.28,30.20,30.13,10,10,10,7,2,10,0.00,0,,32
2013-10-24,67,34,34,31,26,21,69,44,18,30.22,30.17,30.13,10,10,2,7,2,8,0.00,0,,63
2013-10-25,64,46,27,31,26,22,81,53,25,30.31,30.25,30.18,10,10,10,9,2,,0.00,0,,207
2013-10-26,62,44,26,31,27,23,85,56,27,30.43,30.31,30.19,10,10,10,12,4,17,0.00,0,,89
2013-10-27,61,44,26,29,24,21,81,52,23,30.17,29.91,29.67,10,10,10,14,5,18,0.00,0,,66
2013-10-28,60,46,32,36,31,22,96,65,34,29.81,29.66,29.47,10,9,2,23,11,33,0.31,7,Rain,43
2013-10-29,43,38,32,36,33,28,96,83,70,29.96,29.89,29.77,10,10,10,14,5,18,0.02,7,Rain,169
2013-10-30,38,36,33,36,32,30,96,86,76,30.09,29.98,29.90,10,10,4,20,13,27,0.01,8,Snow,210
2013-10-31,44,37,30,34,31,29,100,81,62,30.17,30.09,30.04,10,10,5,23,10,30,0.02,7,Rain-Snow,212